Black Butte Lake Weather Center

Moon Phase Calendar



Black Butte Lake Water Level
Online Cameras

 


      

Current Conditions in Wilson Place
6/15/2021 6:25:31 PM

88°F
Feels Like 84
Clear
Humidity
15%
Pressure
29.97"
Wind
6.3 mph (ENE)
Dew Point
35°F
UV Index
2/10 (Low)
Visibility
6 mi

Hourly Forecast

Date & Time Tue, Jun 15
6:00 PM
Tue, Jun 15
7:00 PM
Tue, Jun 15
8:00 PM
Tue, Jun 15
9:00 PM
Tue, Jun 15
10:00 PM
Tue, Jun 15
11:00 PM
Wed, Jun 16
12:00 AM
Wed, Jun 16
1:00 AM
Wed, Jun 16
2:00 AM
Wed, Jun 16
3:00 AM
Wed, Jun 16
4:00 AM
Wed, Jun 16
5:00 AM
Wed, Jun 16
6:00 AM
Wed, Jun 16
7:00 AM
Wed, Jun 16
8:00 AM
Wed, Jun 16
9:00 AM
Wed, Jun 16
10:00 AM
Wed, Jun 16
11:00 AM
Wed, Jun 16
12:00 PM
Wed, Jun 16
1:00 PM
Wed, Jun 16
2:00 PM
Wed, Jun 16
3:00 PM
Wed, Jun 16
4:00 PM
Wed, Jun 16
5:00 PM
Wed, Jun 16
6:00 PM
Wed, Jun 16
7:00 PM
Wed, Jun 16
8:00 PM
Wed, Jun 16
9:00 PM
Wed, Jun 16
10:00 PM
Wed, Jun 16
11:00 PM
Thu, Jun 17
12:00 AM
Thu, Jun 17
1:00 AM
Thu, Jun 17
2:00 AM
Thu, Jun 17
3:00 AM
Thu, Jun 17
4:00 AM
Thu, Jun 17
5:00 AM
Thu, Jun 17
6:00 AM
Thu, Jun 17
7:00 AM
Thu, Jun 17
8:00 AM
Thu, Jun 17
9:00 AM
Thu, Jun 17
10:00 AM
Thu, Jun 17
11:00 AM
Thu, Jun 17
12:00 PM
Thu, Jun 17
1:00 PM
Thu, Jun 17
2:00 PM
Thu, Jun 17
3:00 PM
Thu, Jun 17
4:00 PM
Thu, Jun 17
5:00 PM
Condition
Clear

Clear

Clear

Clear

Clear

Clear

Clear

Clear

Clear

Clear

Clear

Clear

Clear

Clear

Clear

Clear

Clear

Clear

Clear

Clear

Clear

Clear

Clear

Clouds

Clouds

Clouds

Clouds

Clouds

Clouds

Clouds

Clouds

Clouds

Clouds

Clouds

Clouds

Clouds

Clouds

Clouds

Clouds

Clouds

Clouds

Clouds

Clouds

Clouds

Clouds

Clouds

Clouds

Clouds
Temperature 88°F88°F84°F79°F74°F68°F67°F66°F66°F67°F65°F64°F63°F66°F73°F78°F83°F88°F93°F97°F101°F103°F104°F104°F103°F101°F91°F84°F81°F78°F77°F75°F75°F74°F73°F73°F73°F75°F81°F87°F92°F98°F102°F106°F109°F111°F112°F112°F
Feels Like 84°F84°F81°F79°F72°F65°F64°F64°F64°F64°F63°F61°F61°F64°F71°F76°F81°F85°F89°F92°F95°F96°F98°F98°F97°F95°F87°F81°F79°F77°F75°F73°F74°F73°F71°F71°F71°F74°F79°F83°F88°F93°F97°F100°F101°F103°F104°F103°F
Cloudiness 0%0%0%0%0%0%0%0%0%0%0%0%0%0%0%0%2%9%5%3%2%4%5%11%61%54%48%43%52%60%93%97%97%97%97%98%100%100%100%100%100%100%100%100%100%100%95%82%
Visibility 6 mi6 mi6 mi6 mi6 mi6 mi6 mi6 mi6 mi6 mi6 mi6 mi6 mi6 mi6 mi6 mi6 mi6 mi6 mi6 mi6 mi6 mi6 mi6 mi6 mi6 mi6 mi6 mi6 mi6 mi6 mi6 mi6 mi6 mi6 mi6 mi6 mi6 mi6 mi6 mi6 mi6 mi6 mi6 mi6 mi6 mi6 mi6 mi
Precipitation 0%0%0%0%0%0%0%0%0%0%0%0%0%0%0%0%0%0%0%0%0%0%0%0%0%0%0%0%0%0%0%0%0%0%0%0%0%0%0%0%0%0%0%0%0%0%0%0%
Humidity 15%14%16%18%21%24%25%26%26%26%28%29%30%29%24%20%16%13%10%8%6%6%6%6%6%8%11%12%16%19%22%24%23%24%24%25%25%24%20%17%14%11%9%7%6%5%5%5%
Dew Point 35°F33°F33°F32°F31°F30°F30°F30°F30°F30°F31°F31°F31°F33°F33°F34°F33°F32°F29°F26°F24°F23°F23°F24°F25°F28°F28°F27°F30°F33°F34°F35°F35°F34°F34°F34°F34°F35°F36°F36°F37°F35°F33°F30°F27°F26°F25°F26°F
Pressure 29.97"29.97"29.97"30"30"30"30"30"30"30"30"30"30"30"30"30"30"29.97"29.94"29.91"29.88"29.85"29.83"29.8"29.8"29.8"29.8"29.8"29.83"29.83"29.83"29.83"29.83"29.83"29.83"29.83"29.85"29.85"29.85"29.85"29.83"29.8"29.77"29.74"29.71"29.68"29.65"29.62"
Wind Speed 6.3 mph5.9 mph2.2 mph4.8 mph6.4 mph6.3 mph6 mph7.4 mph8.1 mph8.1 mph7.4 mph7.8 mph6.9 mph6.6 mph8.4 mph9.1 mph9.5 mph8.8 mph7.3 mph5.9 mph5 mph4.4 mph3.8 mph3.4 mph2.9 mph2.6 mph2.3 mph5.4 mph6.5 mph5.5 mph5 mph5.8 mph6.7 mph6 mph5.7 mph5.8 mph6 mph6.2 mph7 mph8.3 mph8.7 mph8.7 mph7.8 mph6.3 mph5.4 mph4.8 mph4.2 mph3.9 mph
Wind
Direction
68°
ENE
72°
ENE
83°
E
297°
WNW
290°
WNW
291°
WNW
307°
NW
323°
NW
321°
NW
324°
NW
321°
NW
319°
NW
326°
NW
335°
NNW
355°
N

N

N

N
13°
NNE
19°
NNE
28°
NNE
37°
NE
43°
NE
50°
NE
71°
ENE
97°
E
178°
S
260°
W
282°
WNW
294°
WNW
311°
NW
320°
NW
315°
NW
316°
NW
323°
NW
325°
NW
327°
NNW
333°
NNW
346°
NNW

N

N

N

N
15°
NNE
24°
NNE
39°
NE
47°
NE
56°
NE

Daily Forecast

Date High Low Precip. Humidity
Today
Jun 15

Clear
88 °F
53 °F
0%
17%
Wednesday
Jun 16

Clear
104 °F
63 °F
0%
8%
Thursday
Jun 17

Clouds
112 °F
73 °F
0%
6%
Friday
Jun 18

Clear
112 °F
73 °F
0%
7%
Saturday
Jun 19

Clear
109 °F
69 °F
0%
7%
Sunday
Jun 20

Clear
108 °F
69 °F
0%
6%
Monday
Jun 21

Clear
101 °F
66 °F
0%
11%
Tuesday
Jun 22

Clear
92 °F
54 °F
0%
25%
Wednesday
Jun 23

Clear
98 °F
59 °F
0%
20%
Thursday
Jun 24

Rain
96 °F
59 °F
30%
21%
Friday
Jun 25

Clear
97 °F
57 °F
3%
19%
Saturday
Jun 26

Clouds
102 °F
66 °F
0%
13%
Sunday
Jun 27

Clear
109 °F
69 °F
0%
9%
Monday
Jun 28

Clear
111 °F
70 °F
0%
8%
Tuesday
Jun 29

Clouds
106 °F
65 °F
0%
10%
Wednesday
Jun 30

Clear
110 °F
62 °F
0%
8%

Temperature 8-14 Day Outlook



Precipitation 8-14 Day Outlook




Quick Links
Black Butte Lake News
Black Butte Lake Photos
Black Butte Lake Videos




About Us
Contact Us
Site Map
Search Site
Advertise With Us
   
BlackButte.LakesOnline.com
THE BLACK BUTTE LAKE WEBSITE

Copyright 2021, Lakes Online
Privacy    |    Legal